TimeCDT,TemperatureF,Dew PointF,Humidity,Sea Level PressureIn,VisibilityMPH,Wind Direction,Wind SpeedMPH,Gust SpeedMPH,PrecipitationIn,Events,Conditions,WindDirDegrees,DateUTC
12:15 AM,73.4,66.2,78,29.75,10.0,South,24.2,31.1,N/A,,Clear,180,2013-05-27 05:15:00
12:35 AM,73.4,66.2,78,29.75,10.0,South,18.4,29.9,N/A,,Clear,180,2013-05-27 05:35:00
12:55 AM,71.6,66.2,83,29.76,10.0,South,19.6,26.5,N/A,,Clear,180,2013-05-27 05:55:00
1:15 AM,71.6,66.2,83,29.77,10.0,South,15.0,19.6,N/A,,Clear,180,2013-05-27 06:15:00
1:35 AM,71.6,66.2,83,29.81,10.0,NNE,11.5,-,N/A,,Mostly Cloudy,30,2013-05-27 06:35:00
1:55 AM,73.4,66.2,78,29.80,10.0,ENE,5.8,-,N/A,,Overcast,70,2013-05-27 06:55:00
2:15 AM,71.6,66.2,83,29.79,10.0,ESE,10.4,-,N/A,,Overcast,110,2013-05-27 07:15:00
2:35 AM,71.6,66.2,83,29.79,10.0,East,12.7,-,N/A,,Overcast,90,2013-05-27 07:35:00
2:55 AM,71.6,66.2,83,29.79,10.0,East,13.8,-,N/A,,Overcast,90,2013-05-27 07:55:00
3:15 AM,68.0,64.4,88,29.79,10.0,East,16.1,21.9,N/A,,Overcast,80,2013-05-27 08:15:00
3:35 AM,66.2,62.6,88,29.79,10.0,East,18.4,21.9,N/A,,Overcast,80,2013-05-27 08:35:00
3:55 AM,64.4,60.8,88,29.80,10.0,ENE,15.0,-,N/A,,Overcast,70,2013-05-27 08:55:00
4:15 AM,64.4,60.8,88,29.81,10.0,ENE,10.4,-,N/A,,Overcast,60,2013-05-27 09:15:00
4:35 AM,64.4,60.8,88,29.80,10.0,East,12.7,-,N/A,,Overcast,100,2013-05-27 09:35:00
4:55 AM,64.4,60.8,88,29.79,9.0,East,18.4,-,N/A,Thunderstorm,Overcast,100,2013-05-27 09:55:00
5:15 AM,62.6,59.0,88,29.78,10.0,East,17.3,-,N/A,,Partly Cloudy,90,2013-05-27 10:15:00
5:35 AM,62.6,59.0,88,29.78,10.0,East,17.3,-,N/A,,Clear,80,2013-05-27 10:35:00
5:55 AM,60.8,59.0,94,29.77,10.0,East,16.1,-,N/A,,Mostly Cloudy,80,2013-05-27 10:55:00
6:15 AM,60.8,57.2,88,29.77,10.0,East,18.4,-,N/A,,Overcast,90,2013-05-27 11:15:00
6:35 AM,60.8,57.2,88,29.76,10.0,East,21.9,26.5,N/A,,Overcast,100,2013-05-27 11:35:00
6:55 AM,60.8,57.2,88,29.79,10.0,East,24.2,27.6,N/A,,Overcast,80,2013-05-27 11:55:00
7:15 AM,60.8,57.2,88,29.79,10.0,East,27.6,34.5,N/A,,Overcast,100,2013-05-27 12:15:00
7:35 AM,60.8,57.2,88,29.79,10.0,East,27.6,34.5,N/A,,Overcast,100,2013-05-27 12:35:00
7:55 AM,60.8,55.4,82,29.79,10.0,East,25.3,33.4,N/A,,Overcast,90,2013-05-27 12:55:00
8:15 AM,60.8,55.4,82,29.79,10.0,East,25.3,33.4,N/A,,Overcast,100,2013-05-27 13:15:00
8:35 AM,60.8,57.2,88,29.79,10.0,ESE,20.7,27.6,N/A,,Overcast,110,2013-05-27 13:35:00
8:55 AM,60.8,57.2,88,29.79,10.0,ESE,21.9,25.3,N/A,,Overcast,110,2013-05-27 13:55:00
9:15 AM,62.6,57.2,82,29.76,10.0,ESE,23.0,27.6,N/A,,Overcast,120,2013-05-27 14:15:00
9:35 AM,64.4,57.2,77,29.77,10.0,ESE,24.2,-,N/A,,Overcast,110,2013-05-27 14:35:00
9:55 AM,64.4,57.2,77,29.78,10.0,ESE,19.6,24.2,N/A,,Overcast,110,2013-05-27 14:55:00
10:15 AM,64.4,57.2,77,29.78,10.0,ESE,17.3,24.2,N/A,,Overcast,120,2013-05-27 15:15:00
10:35 AM,66.2,57.2,73,29.80,10.0,ESE,12.7,19.6,N/A,,Overcast,110,2013-05-27 15:35:00
10:55 AM,66.2,57.2,73,29.81,10.0,East,15.0,-,N/A,,Overcast,100,2013-05-27 15:55:00
11:15 AM,66.2,57.2,73,29.81,10.0,East,12.7,-,N/A,,Overcast,100,2013-05-27 16:15:00
11:35 AM,66.2,59.0,78,29.81,10.0,ESE,10.4,-,N/A,,Overcast,120,2013-05-27 16:35:00
11:55 AM,69.8,60.8,73,29.79,10.0,ESE,11.5,-,N/A,,Overcast,110,2013-05-27 16:55:00
12:15 PM,71.6,60.8,69,29.78,10.0,ESE,16.1,-,N/A,,Overcast,120,2013-05-27 17:15:00
12:35 PM,73.4,60.8,65,29.77,10.0,SE,16.1,-,N/A,,Overcast,130,2013-05-27 17:35:00
12:55 PM,73.4,60.8,65,29.76,10.0,ESE,16.1,24.2,N/A,,Overcast,120,2013-05-27 17:55:00
1:15 PM,75.2,60.8,61,29.75,10.0,SE,21.9,-,N/A,,Overcast,130,2013-05-27 18:15:00
1:35 PM,75.2,60.8,61,29.74,10.0,SE,21.9,26.5,N/A,,Overcast,130,2013-05-27 18:35:00
1:55 PM,75.2,60.8,61,29.74,10.0,SE,20.7,25.3,N/A,,Overcast,140,2013-05-27 18:55:00
2:15 PM,75.2,60.8,61,29.73,10.0,SE,19.6,26.5,N/A,,Overcast,130,2013-05-27 19:15:00
2:35 PM,77.0,60.8,57,29.72,10.0,ESE,15.0,-,N/A,,Overcast,120,2013-05-27 19:35:00
2:55 PM,75.2,60.8,61,29.72,10.0,SE,12.7,-,N/A,,Overcast,140,2013-05-27 19:55:00
3:15 PM,75.2,60.8,61,29.71,10.0,ESE,13.8,-,N/A,,Overcast,120,2013-05-27 20:15:00
3:35 PM,78.8,62.6,57,29.70,10.0,ESE,16.1,19.6,N/A,,Overcast,120,2013-05-27 20:35:00
3:55 PM,78.8,62.6,57,29.69,10.0,ESE,12.7,-,N/A,,Overcast,120,2013-05-27 20:55:00
4:15 PM,80.6,64.4,58,29.69,10.0,East,12.7,-,N/A,,Overcast,100,2013-05-27 21:15:00
4:35 PM,78.8,62.6,57,29.68,10.0,East,12.7,18.4,N/A,,Mostly Cloudy,90,2013-05-27 21:35:00
4:55 PM,77.0,62.6,61,29.67,10.0,East,11.5,-,N/A,,Mostly Cloudy,80,2013-05-27 21:55:00
5:15 PM,77.0,62.6,61,29.64,10.0,ENE,16.1,-,N/A,,Overcast,70,2013-05-27 22:15:00
5:35 PM,75.2,62.6,65,29.65,10.0,ENE,16.1,-,N/A,Thunderstorm,Thunderstorm,70,2013-05-27 22:35:00
5:55 PM,71.6,62.6,73,29.66,10.0,ENE,17.3,-,N/A,Thunderstorm,Thunderstorm,60,2013-05-27 22:55:00
6:15 PM,69.8,64.4,83,29.69,10.0,SE,11.5,-,0.06,Thunderstorm,Thunderstorm,140,2013-05-27 23:15:00
6:35 PM,66.2,64.4,94,29.65,7.0,ENE,17.3,25.3,0.64,Thunderstorm,Thunderstorm,70,2013-05-27 23:35:00
6:55 PM,66.2,62.6,88,29.64,10.0,ENE,13.8,26.5,0.64,Thunderstorm,Scattered Clouds,70,2013-05-27 23:55:00
7:15 PM,66.2,64.4,94,29.66,10.0,NE,11.5,-,N/A,,Clear,40,2013-05-28 00:15:00
7:35 PM,68.0,64.4,88,29.65,10.0,NE,13.8,-,N/A,,Scattered Clouds,50,2013-05-28 00:35:00
7:55 PM,68.0,64.4,88,29.64,10.0,NE,17.3,-,N/A,,Mostly Cloudy,50,2013-05-28 00:55:00
8:15 PM,68.0,64.4,88,29.64,10.0,NE,12.7,-,N/A,,Mostly Cloudy,40,2013-05-28 01:15:00
8:35 PM,68.0,64.4,88,29.63,10.0,ENE,13.8,-,N/A,,Partly Cloudy,60,2013-05-28 01:35:00
8:55 PM,66.2,64.4,94,29.63,10.0,East,13.8,-,N/A,,Scattered Clouds,80,2013-05-28 01:55:00
9:15 PM,66.2,64.4,94,29.62,10.0,East,9.2,-,N/A,,Mostly Cloudy,80,2013-05-28 02:15:00
9:35 PM,66.2,62.6,88,29.64,10.0,NNE,9.2,-,N/A,,Scattered Clouds,30,2013-05-28 02:35:00
9:55 PM,66.2,62.6,88,29.69,10.0,North,6.9,-,N/A,,Clear,350,2013-05-28 02:55:00
10:15 PM,66.2,64.4,94,29.71,10.0,NNW,4.6,-,N/A,,Mostly Cloudy,340,2013-05-28 03:15:00
10:35 PM,64.4,62.6,94,29.73,10.0,NNE,10.4,-,N/A,,Mostly Cloudy,20,2013-05-28 03:35:00
10:55 PM,64.4,62.6,94,29.73,10.0,NNE,8.1,-,N/A,,Partly Cloudy,20,2013-05-28 03:55:00
11:15 PM,64.4,62.6,94,29.71,10.0,NE,3.5,-,N/A,,Mostly Cloudy,50,2013-05-28 04:15:00
11:35 PM,64.4,62.6,94,29.72,10.0,North,8.1,-,N/A,,Partly Cloudy,10,2013-05-28 04:35:00
11:55 PM,64.4,62.6,94,29.70,10.0,ENE,8.1,-,N/A,,Clear,60,2013-05-28 04:55:00